Wind_Speed
28 29 29 30 31 31 29 26 24 24 23 22 22 22 22 21 21 20 18 16 15 14 14 13 13 12 12 12 11 11 10 10 9 8 7 7 7 6 6 6 5 4 4 3 3 3 3 4 5
31 31 32 33 33 33 31 28 26 25 25 24 24 24 24 23 22 21 19 18 17 16 15 15 14 14 14 13 13 12 12 11 10 10 9 9 8 8 8 7 7 6 5 5 5 5 5 5 6
34 34 35 36 36 34 30 29 29 28 28 27 26 26 26 25 24 23 22 20 19 18 17 16 16 16 15 15 14 14 13 13 12 11 10 10 10 9 9 9 8 7 7 6 6 6 6 7 7
36 37 38 38 38 34 32 31 31 31 30 29 29 28 28 26 27 25 24 22 21 20 19 18 18 17 17 17 16 15 15 14 14 13 12 11 11 10 10 9 9 9 8 8 8 8 8 8 8
40 40 41 40 38 36 35 34 34 33 32 31 30 30 29 28 28 27 26 25 23 22 21 20 19 19 18 18 17 16 16 16 15 14 13 13 12 11 10 10 10 10 9 9 9 9 9 9 9
42 43 43 42 40 38 37 37 37 36 35 33 32 32 31 30 30 28 28 27 26 24 23 22 21 20 20 19 19 18 17 17 16 15 15 14 13 12 12 11 11 11 11 11 10 10 10 10 10
44 45 45 44 42 41 40 39 40 38 37 35 34 34 33 32 31 31 30 29 28 26 25 24 23 22 21 21 20 20 19 18 17 16 16 16 15 14 13 13 13 12 12 12 11 11 11 12 12
46 48 47 46 45 44 42 42 42 41 40 38 38 36 34 33 33 33 32 31 30 29 27 26 25 24 23 22 22 21 21 20 19 19 18 18 17 16 15 15 14 14 14 14 13 13 13 13 14
47 49 49 47 47 45 45 45 45 43 42 41 40 39 36 35 35 35 34 33 32 31 29 28 27 26 25 24 23 23 22 22 21 21 20 20 19 18 17 17 16 16 16 16 15 16 15 15 16
48 50 49 48 48 48 48 48 48 46 45 44 42 40 39 38 37 36 35 35 34 32 31 30 29 28 26 25 25 24 24 24 24 23 22 22 21 20 20 19 18 18 18 18 18 18 18 17 17
49 50 49 49 49 50 50 50 50 49 48 46 44 41 40 40 39 38 37 36 35 34 33 32 31 29 28 27 26 26 26 26 26 25 24 24 23 23 22 21 21 21 20 20 20 20 20 19 19
48 48 49 48 49 50 50 51 50 50 50 47 46 43 42 41 40 39 38 37 36 35 34 33 32 31 30 29 28 28 28 27 27 27 26 25 25 25 24 24 23 23 22 22 22 22 22 22 22
47 47 47 48 48 49 49 50 52 50 50 49 48 46 44 42 42 41 39 38 37 37 36 34 33 32 31 31 30 30 29 29 29 28 28 27 27 27 27 26 25 25 24 24 24 24 24 23 23
42 44 45 46 46 47 48 49 51 51 49 49 49 47 46 44 43 42 40 39 39 38 37 36 35 34 33 32 32 32 31 31 31 31 30 29 29 29 28 28 27 27 27 26 25 25 26 25 25
37 40 42 42 43 43 46 48 50 50 48 48 49 48 47 46 45 43 42 41 40 39 38 38 36 35 34 34 33 33 33 34 33 33 32 32 31 31 30 30 30 29 29 28 27 27 27 27 27
34 36 38 39 40 41 43 46 47 48 48 48 48 48 47 47 46 45 44 42 41 40 39 38 38 36 35 35 34 35 35 35 35 35 34 34 33 33 32 32 32 31 31 30 30 30 30 29 29
32 33 34 35 38 40 41 42 44 46 47 47 46 46 47 47 46 46 45 44 42 41 40 40 39 38 37 36 36 36 36 35 36 36 36 35 35 34 34 34 34 33 33 33 33 32 32 32 31
30 31 31 33 34 37 38 39 39 42 46 46 46 46 46 47 46 46 45 44 43 43 42 41 41 40 39 38 37 37 37 37 37 37 37 37 37 36 36 36 35 35 35 35 35 35 34 34 33
27 28 29 29 32 35 36 37 38 41 43 45 45 45 46 46 46 47 46 45 44 44 43 43 42 41 40 39 39 39 38 38 38 39 39 39 39 39 38 38 38 38 38 38 37 37 36 36 36
26 27 27 28 30 33 34 34 36 38 41 41 43 44 45 46 46 46 47 46 45 45 44 44 44 43 42 41 40 40 40 40 40 40 40 40 41 41 41 41 40 40 40 40 39 39 39 39 38
24 26 25 27 28 30 33 34 34 36 38 39 40 43 43 44 45 45 46 46 45 46 46 45 44 44 43 43 42 41 42 42 42 41 42 43 43 43 43 43 42 42 42 42 41 41 41 41 41
22 23 23 25 26 27 31 33 32 33 35 37 38 40 41 42 43 44 45 44 44 44 45 45 45 45 45 44 43 43 44 44 44 44 43 44 45 45 45 45 45 44 44 44 44 44 43 43 43
21 23 24 25 25 26 28 32 32 31 33 35 36 37 39 39 41 42 43 42 43 43 44 45 46 46 46 46 45 45 46 46 45 46 46 46 46 46 47 47 47 46 46 46 46 46 45 45 45
19 21 22 23 24 25 25 28 30 30 30 32 34 36 37 38 39 41 42 42 42 42 43 45 45 46 47 47 47 46 46 46 47 46 46 46 47 47 48 48 49 48 47 48 48 48 48 47 46
18 20 20 21 23 25 24 26 28 28 29 30 31 33 35 36 38 39 40 41 42 42 43 44 45 45 46 47 47 47 46 46 46 46 46 45 46 47 48 49 50 50 50 49 48 47 47 47 47
17 18 19 21 23 23 24 26 25 25 27 29 32 32 34 35 37 38 39 41 42 43 43 42 44 46 46 46 46 47 47 47 47 47 46 46 46 46 46 47 49 49 48 49 49 48 48 47 47
16 18 18 20 21 23 24 26 26 26 27 28 31 34 36 35 36 37 38 40 41 42 43 43 44 45 46 46 46 47 48 48 48 47 47 47 47 48 48 48 48 48 49 49 50 50 50 49 49
16 18 19 20 21 23 24 25 26 27 28 29 29 31 34 36 37 37 38 39 41 41 43 44 44 44 45 47 46 46 47 48 48 48 48 47 47 48 49 49 49 50 50 50 51 51 51 50 50
15 18 20 22 22 24 24 24 25 25 27 28 29 29 31 33 34 36 37 38 39 40 41 42 44 44 45 46 46 46 46 46 47 48 48 48 49 48 48 48 49 50 51 52 52 51 51 51 51
15 17 19 21 23 23 24 23 23 24 26 29 29 29 29 30 32 34 35 36 38 38 39 41 43 44 44 45 46 46 46 46 47 48 48 48 49 50 50 49 49 50 50 51 51 51 52 52 52
Wind_Direction
240 238 238 239 240 240 241 240 239 238 237 235 235 235 233 233 235 235 234 232 233 233 234 235 234 234 235 236 237 238 237 238 238 240 241 241 242 244 248 251 252 257 260 262 265 278 299 312 318
242 240 240 239 240 242 241 240 240 240 239 236 235 235 234 235 236 237 235 234 235 235 236 236 235 235 236 238 238 240 239 240 241 242 244 245 244 245 249 253 255 258 261 262 265 272 286 298 305
243 242 241 240 241 242 242 241 241 240 239 238 237 235 235 235 236 237 237 236 235 236 237 237 237 238 239 239 240 242 241 243 242 243 245 246 246 247 250 253 254 257 262 264 266 271 281 290 297
244 243 242 242 242 242 242 241 241 240 239 238 237 236 235 235 237 236 237 236 236 237 238 239 240 240 241 242 242 242 243 245 245 244 246 246 247 248 251 254 256 259 263 266 267 272 279 285 292
244 243 243 243 243 241 241 240 241 240 239 239 238 236 235 236 237 236 238 237 236 237 238 240 241 242 243 243 243 243 244 245 246 247 246 246 247 249 252 255 258 263 266 268 270 274 278 282 288
245 244 244 244 243 241 240 241 241 241 240 239 239 237 235 236 236 236 237 237 237 238 238 240 242 242 243 244 244 245 246 247 248 248 247 246 248 250 254 258 262 266 270 270 271 274 276 280 285
246 246 245 245 244 242 241 241 242 242 241 239 238 238 235 236 236 237 237 237 237 238 239 240 242 243 243 244 245 246 247 248 248 248 247 247 249 252 255 259 262 266 270 272 273 275 277 279 283
247 247 246 244 243 242 241 241 241 241 241 240 238 239 237 237 237 238 238 238 238 238 239 241 242 243 244 246 246 246 247 247 248 248 248 247 249 253 255 258 263 267 269 271 275 275 278 281 285
246 246 246 245 244 242 241 240 240 240 241 240 239 238 238 238 238 238 239 238 238 239 240 241 242 243 244 245 247 248 248 248 248 248 249 249 250 253 256 259 263 267 269 271 274 276 277 281 284
245 245 246 245 243 242 240 239 240 239 239 239 239 238 238 237 238 238 238 239 239 239 239 241 242 243 244 246 247 248 249 249 250 250 250 251 253 255 257 260 262 264 267 270 272 275 277 280 283
246 246 246 244 243 242 240 238 238 239 239 239 239 238 238 237 237 238 238 238 239 238 238 240 241 243 245 246 247 248 249 250 251 250 251 252 254 257 258 260 262 263 266 268 271 274 277 278 281
246 246 245 244 242 241 240 238 237 238 239 239 238 237 237 237 236 236 236 237 238 238 238 239 240 242 244 246 247 248 250 251 252 251 251 253 254 256 259 260 261 263 265 267 270 273 275 277 279
246 245 243 241 240 240 239 238 237 236 236 237 238 237 236 236 235 234 235 236 236 237 238 239 241 243 244 246 247 248 250 250 251 252 253 254 255 257 259 260 261 262 264 266 269 271 275 278 279
245 243 241 240 239 239 238 236 235 235 235 235 236 237 236 235 235 234 234 235 236 237 238 240 241 243 245 247 247 249 249 251 252 252 254 255 256 258 259 261 262 263 264 265 268 272 275 277 280
242 241 239 238 238 238 238 237 235 234 233 234 235 235 234 233 234 234 234 235 237 237 238 240 241 243 245 248 249 250 251 251 252 253 254 256 257 259 260 261 262 263 264 265 267 271 274 277 279
240 239 239 237 238 238 239 239 236 234 234 233 233 233 233 232 233 234 235 235 236 237 238 240 241 243 246 248 250 251 251 252 252 253 254 256 258 259 261 261 262 262 264 266 269 272 274 276 279
238 239 239 238 238 238 239 240 237 235 234 233 232 232 232 232 232 233 234 235 236 237 238 239 241 243 245 248 249 250 251 252 253 254 255 256 258 259 261 262 262 262 264 266 268 270 273 276 278
240 240 239 239 236 238 241 241 238 235 234 234 232 231 230 230 231 232 233 234 235 237 238 239 241 242 245 247 249 251 251 252 253 255 256 257 258 260 261 262 262 263 264 266 267 269 272 275 278
241 241 240 239 238 241 242 240 239 236 235 234 232 232 230 229 230 231 233 233 235 237 238 239 240 242 244 247 250 251 252 253 254 255 256 257 258 259 260 262 262 264 266 267 268 270 272 274 276
238 242 240 238 239 241 241 239 238 236 235 235 234 233 231 229 230 232 233 234 235 238 239 240 241 243 244 247 250 252 253 254 255 255 255 256 257 259 260 261 263 264 265 267 269 270 271 273 276
237 240 239 239 238 242 242 239 238 236 236 234 234 233 232 231 231 233 234 235 237 238 239 241 243 245 246 248 251 252 253 254 255 256 256 256 257 259 260 261 262 263 265 267 269 270 271 273 274
238 238 238 239 241 240 241 242 240 237 236 236 235 234 233 233 233 235 236 237 239 241 242 243 244 246 247 249 251 254 255 255 256 257 259 258 259 260 260 261 262 264 265 267 268 270 271 273 274
236 239 241 242 244 244 243 246 244 242 238 236 236 236 234 235 236 237 239 240 241 243 244 244 245 247 249 251 253 255 256 257 257 258 259 260 261 260 261 261 262 263 265 267 268 270 271 272 273
237 237 239 243 244 245 244 247 245 243 241 237 236 236 235 236 238 238 240 241 243 244 245 245 247 249 251 252 254 256 257 258 258 257 259 259 260 260 261 261 262 262 264 266 269 270 270 272 273
238 238 237 241 244 246 247 249 246 247 244 239 238 238 236 238 239 241 242 244 246 246 247 248 248 249 251 252 253 255 257 257 257 259 259 260 261 261 261 261 262 263 264 266 268 269 271 272 272
239 238 239 243 244 246 248 249 247 249 246 244 242 241 239 241 242 244 245 246 247 248 249 250 250 250 251 253 254 255 256 258 258 260 261 261 261 262 262 262 262 264 265 267 268 270 271 272 273
240 239 241 244 246 248 247 247 247 248 247 247 246 245 243 244 245 246 247 247 248 249 250 252 253 252 252 254 255 256 258 259 260 261 262 263 263 263 263 263 264 266 266 268 271 271 272 272 273
241 239 240 246 244 248 248 248 248 248 249 250 249 248 248 247 247 247 248 249 250 251 251 251 252 253 254 254 256 257 259 260 260 262 264 265 265 265 265 264 265 266 267 268 269 271 272 273 272
246 243 244 247 248 251 252 253 253 255 254 252 252 251 251 250 250 250 250 250 251 252 253 252 251 254 255 256 257 258 260 261 261 262 264 265 265 265 266 266 266 267 268 269 270 271 272 273 274
253 248 250 250 250 254 255 254 256 258 257 256 255 255 252 250 251 252 252 252 251 253 253 253 254 255 257 258 258 260 262 264 264 264 265 266 266 267 267 268 268 268 269 270 270 271 272 273 274
Height
5827 5829 5831 5833 5835 5836 5839 5844 5847 5849 5852 5854 5855 5857 5858 5860 5862 5865 5866 5866 5868 5869 5870 5871 5872 5873 5874 5875 5876 5877 5878 5878 5879 5879 5880 5880 5880 5881 5881 5881 5881 5882 5882 5882 5882 5882 5882 5882 5882
5821 5824 5826 5827 5829 5831 5836 5841 5843 5846 5848 5850 5852 5854 5855 5856 5858 5860 5862 5864 5866 5867 5868 5869 5870 5872 5873 5873 5874 5875 5876 5877 5877 5878 5878 5879 5879 5879 5880 5880 5881 5881 5881 5881 5881 5881 5881 5881 5881
5815 5817 5820 5821 5823 5827 5833 5836 5839 5841 5843 5846 5848 5850 5852 5854 5855 5857 5859 5861 5863 5865 5866 5867 5868 5869 5870 5871 5872 5873 5874 5875 5876 5876 5877 5877 5878 5878 5879 5879 5879 5880 5880 5880 5880 5880 5880 5880 5880
5808 5810 5812 5814 5818 5824 5828 5831 5832 5835 5838 5841 5843 5845 5848 5850 5851 5853 5855 5858 5860 5861 5863 5864 5865 5867 5868 5869 5870 5871 5872 5873 5874 5874 5875 5876 5876 5877 5877 5877 5878 5878 5878 5878 5879 5879 5879 5878 5878
5800 5802 5804 5807 5812 5818 5821 5824 5826 5829 5832 5835 5838 5840 5843 5845 5847 5850 5852 5854 5856 5858 5860 5861 5862 5864 5865 5866 5867 5868 5870 5871 5871 5872 5873 5874 5874 5875 5876 5876 5876 5877 5877 5877 5877 5877 5877 5877 5877
5791 5793 5796 5799 5806 5811 5815 5818 5820 5822 5826 5829 5832 5835 5838 5840 5842 5845 5847 5849 5852 5854 5856 5857 5859 5860 5862 5863 5864 5866 5867 5868 5869 5870 5871 5871 5872 5873 5874 5874 5874 5875 5875 5875 5875 5875 5875 5875 5875
5781 5783 5787 5792 5797 5803 5807 5810 5813 5816 5819 5823 5826 5829 5832 5835 5837 5839 5842 5844 5847 5849 5851 5853 5855 5856 5858 5860 5861 5862 5864 5865 5866 5867 5868 5869 5870 5871 5871 5872 5872 5873 5873 5873 5873 5873 5873 5873 5873
5769 5773 5777 5782 5787 5793 5799 5801 5804 5808 5812 5816 5819 5822 5825 5829 5832 5834 5837 5840 5842 5844 5847 5849 5851 5852 5854 5855 5857 5859 5860 5861 5863 5864 5865 5866 5867 5868 5869 5869 5870 5870 5870 5871 5871 5871 5871 5871 5870
5756 5761 5765 5772 5777 5784 5788 5791 5795 5799 5802 5807 5811 5814 5819 5823 5825 5828 5831 5834 5837 5839 5842 5844 5846 5848 5849 5851 5853 5854 5856 5857 5859 5860 5861 5863 5864 5865 5866 5866 5867 5867 5867 5868 5868 5868 5868 5868 5868
5744 5748 5756 5763 5767 5772 5777 5780 5785 5789 5793 5797 5802 5807 5811 5815 5818 5821 5825 5828 5830 5833 5836 5838 5840 5842 5844 5846 5848 5850 5851 5853 5855 5856 5858 5859 5860 5861 5862 5863 5863 5864 5864 5864 5864 5865 5865 5865 5864
5732 5738 5746 5750 5755 5759 5764 5769 5773 5778 5783 5789 5794 5799 5803 5807 5811 5814 5817 5820 5824 5827 5830 5832 5835 5837 5839 5841 5843 5845 5846 5848 5850 5852 5853 5855 5856 5857 5858 5859 5859 5860 5860 5861 5861 5861 5861 5861 5861
5722 5727 5732 5737 5741 5746 5751 5756 5761 5767 5773 5779 5784 5789 5794 5798 5802 5806 5810 5813 5817 5820 5823 5826 5829 5831 5833 5835 5837 5839 5841 5843 5845 5846 5848 5850 5851 5852 5853 5854 5855 5856 5856 5857 5857 5857 5857 5857 5857
5709 5714 5719 5724 5728 5733 5738 5743 5748 5754 5762 5768 5773 5779 5784 5789 5793 5798 5802 5806 5809 5813 5816 5820 5822 5825 5827 5830 5832 5833 5835 5837 5839 5841 5842 5844 5846 5847 5848 5849 5850 5850 5851 5852 5852 5852 5852 5852 5852
5698 5702 5707 5711 5716 5720 5726 5730 5735 5744 5751 5757 5763 5768 5774 5780 5784 5789 5794 5799 5803 5806 5810 5813 5816 5819 5821 5823 5825 5827 5829 5831 5833 5835 5837 5838 5840 5841 5842 5843 5844 5845 5846 5846 5847 5847 5847 5847 5847
5688 5692 5697 5701 5706 5711 5715 5719 5725 5734 5740 5746 5751 5757 5764 5770 5775 5781 5786 5791 5795 5799 5803 5806 5809 5812 5815 5817 5819 5820 5822 5824 5826 5828 5830 5832 5833 5835 5836 5837 5838 5839 5840 5840 5841 5841 5841 5841 5841
5679 5683 5687 5693 5697 5701 5706 5709 5717 5724 5730 5735 5741 5747 5754 5761 5767 5772 5777 5783 5787 5791 5795 5799 5802 5805 5807 5810 5811 5813 5815 5817 5819 5821 5823 5825 5826 5828 5829 5830 5831 5833 5833 5834 5835 5835 5836 5835 5835
5671 5675 5680 5686 5690 5693 5697 5701 5708 5714 5720 5725 5731 5738 5744 5752 5758 5764 5769 5774 5779 5783 5787 5791 5794 5797 5800 5802 5804 5806 5807 5809 5811 5813 5815 5817 5819 5821 5822 5823 5824 5825 5826 5827 5828 5828 5829 5829 5828
5666 5670 5674 5679 5683 5686 5689 5694 5700 5705 5710 5716 5722 5728 5735 5742 5749 5755 5760 5765 5770 5775 5779 5783 5786 5789 5792 5794 5796 5798 5799 5802 5804 5805 5807 5809 5811 5813 5814 5816 5817 5818 5819 5820 5820 5821 5821 5821 5821
5663 5666 5670 5673 5677 5680 5683 5687 5692 5696 5702 5708 5714 5720 5726 5733 5740 5746 5751 5757 5762 5766 5770 5774 5778 5780 5783 5786 5788 5790 5791 5793 5795 5797 5799 5800 5802 5804 5806 5807 5809 5810 5811 5812 5812 5813 5813 5813 5813
5658 5661 5664 5668 5671 5673 5677 5681 5685 5689 5695 5700 5706 5712 5718 5725 5731 5737 5742 5748 5753 5757 5761 5765 5769 5772 5775 5777 5779 5781 5783 5785 5787 5788 5790 5791 5793 5795 5797 5798 5800 5801 5802 5803 5803 5804 5804 5805 5805
5654 5657 5659 5662 5665 5668 5672 5675 5678 5682 5687 5693 5699 5705 5710 5717 5723 5728 5734 5739 5743 5748 5752 5756 5760 5763 5766 5768 5770 5772 5774 5775 5778 5779 5780 5782 5784 5786 5788 5789 5791 5792 5793 5794 5794 5795 5795 5796 5796
5651 5654 5656 5658 5660 5663 5667 5668 5672 5676 5680 5685 5691 5697 5702 5708 5714 5719 5725 5730 5735 5739 5743 5746 5750 5753 5756 5758 5760 5762 5764 5766 5768 5770 5771 5772 5774 5776 5778 5779 5780 5782 5783 5784 5785 5785 5785 5785 5785
5648 5651 5654 5655 5657 5659 5661 5664 5667 5670 5674 5680 5685 5691 5696 5701 5707 5712 5717 5722 5726 5730 5733 5737 5740 5743 5746 5748 5750 5751 5753 5756 5758 5760 5761 5763 5764 5765 5767 5768 5770 5772 5773 5774 5774 5774 5775 5775 5775
5645 5648 5650 5651 5653 5655 5657 5659 5662 5666 5670 5675 5680 5684 5690 5695 5700 5704 5709 5713 5717 5721 5724 5727 5730 5733 5736 5738 5740 5741 5743 5745 5747 5749 5750 5751 5753 5754 5755 5757 5759 5761 5762 5763 5763 5763 5764 5764 5764
5642 5645 5647 5647 5648 5651 5654 5655 5659 5663 5667 5671 5675 5679 5683 5688 5692 5697 5701 5704 5708 5712 5714 5717 5719 5722 5724 5726 5729 5730 5732 5733 5735 5737 5738 5740 5742 5743 5745 5746 5747 5749 5751 5752 5752 5752 5752 5752 5753
5639 5642 5644 5645 5645 5648 5650 5652 5657 5660 5663 5667 5670 5673 5677 5681 5685 5689 5693 5696 5699 5702 5704 5706 5709 5711 5713 5715 5717 5719 5720 5721 5723 5725 5727 5729 5730 5732 5733 5734 5736 5737 5739 5740 5741 5741 5741 5741 5741
5636 5637 5640 5641 5642 5644 5646 5650 5653 5655 5658 5662 5665 5668 5671 5674 5677 5681 5685 5687 5689 5692 5694 5696 5698 5700 5702 5705 5707 5708 5709 5711 5712 5714 5715 5717 5718 5720 5722 5723 5724 5725 5727 5728 5728 5729 5729 5729 5729
5633 5634 5636 5637 5638 5639 5643 5645 5649 5651 5654 5656 5658 5661 5664 5667 5670 5673 5676 5678 5680 5683 5685 5686 5688 5690 5692 5695 5696 5697 5698 5700 5701 5703 5704 5705 5707 5708 5710 5711 5713 5714 5715 5716 5716 5717 5717 5717 5717
5631 5631 5632 5633 5635 5637 5638 5644 5644 5646 5648 5650 5653 5655 5657 5660 5662 5665 5667 5670 5671 5673 5675 5677 5679 5680 5682 5684 5686 5687 5687 5688 5690 5692 5693 5694 5695 5696 5697 5699 5701 5702 5703 5704 5704 5704 5704 5704 5704
5627 5627 5628 5630 5631 5633 5634 5640 5639 5640 5642 5644 5647 5648 5650 5653 5655 5657 5659 5661 5663 5664 5666 5668 5669 5671 5672 5674 5675 5676 5677 5678 5679 5680 5681 5682 5683 5684 5685 5687 5688 5689 5690 5691 5691 5692 5692 5692 5691